RS28S (SXC3-214 MIET-A*) (53377 NORAD) Tracking and Keplerian Element Data

This shows tracking and keplerian element data for the satellite.

Feedback or suggestion? Click here.




ElementValue
Catalog53377
NameRS28S (SXC3-214 MIET-A*)
Epoch Orbit1581
Epoch Day325.03108462
Epoch Year2022
RAAN225.8131
Inclination97.4276
Eccentricity0.0002814
Argument of Perigee108.0071
Mean Anonmoly6.8192
Mean Motion15.26687348
Decay Rate8.886E-05
L11 53377U 22096H 22325.03108462 .00008886 00000+0 34117-3 0 9990
L22 53377 97.4276 225.8131 0002814 108.0071 6.8192 15.26687348 15817



Live tracking and technical data element details for RS28S (SXC3-214 MIET-A*) (NORAD 53377). RS28S (SXC3-214 MIET-A*) can be tracked NOW for your location showing map with azimuth and elevation plus other details from your city location.







IsCatalogInMostPopularTable: catalog: 53377, numindb: 5
Update: records affected: 1



GetName: 53377 RS28S (SXC3-214 MIET-A*)

Hit Count: updated at: Tue, 29 Nov 2022 01:10:10 GMT